No identification:



2003 GY                                                        

Epoch 2003 June 10.0 TT = JDT 2452800.5                 MPC      

M 332.85308              (2000.0)            P               Q

n   0.60738341     Peri.  334.04024     +0.44190877     +0.89566355

a   1.3808953      Node   322.12840     -0.80819366     +0.37330764

e   0.3177124      Incl.    4.67499     -0.38928093     +0.24171929

P   1.62           H   20.1           G   0.15           U   5

Residuals in seconds of arc 

030405 608  0.7-  0.8-    030410 649  0.7+  0.1-    030502 176  0.1-  0.4-  

030405 608  0.5-  0.3-    030410 649  1.0+  0.1-    030526 715  0.2-  0.5-  

030405 608  0.3+  0.5-    030411 474  0.4+  0.4-    030526 715  0.1-  0.5-  

030405 J87  0.7+  0.6-    030411 474  0.3+  0.5-    030526 715  1.3-  0.6+  

030405 J87 (3.3+  1.5-)   030411 474  0.3-  0.1-    030703 413  0.3+  0.4-  

030405 J87  1.3-  0.1+    030412 715 (3.4+  0.1-)   030703 413  0.5+  0.3-  

030405 J87  1.0-  0.0     030412 715  0.0   0.1-    030827 670  1.2+  0.4-  

030405 176  0.1+  0.6+    030412 715  0.0   0.2+    030827 670  2.0-  0.4+  

030405 176  0.1+  0.3+    030412 715  0.0   0.1+    030830 670  0.4+  0.0   

030405 176  0.2+  0.1+    030415 413  0.3+  0.2+    030830 670  0.7+  0.2-  

030405 176  0.2+  0.2-    030418 413  0.2+  0.1+    030830 587  0.5+  0.8+  

030405 176  0.2+  0.5-    030418 413  0.2-  0.4+    030830 587  0.1-  0.3+  

030406 673  1.3+  2.0-    030418 413  0.5-  0.2+    030830 587  0.6-  1.6-  

030406 673  0.8-  0.8-    030420 246  0.9+  0.0     030830 587  0.2+  0.7-  

030406 673  1.4-  0.3-    030420 246  0.5+  0.4+    030903 240  0.2-  0.0   

030406 926  1.5-  0.3+    030420 246  0.5-  0.3+    030903 240  0.1-  0.1+  

030406 926  1.0+  1.2-    030420 246  0.5+  0.4+    030903 240  0.1-  0.2+  

030407 673  0.2+  0.1+    030423 926  0.4-  0.2-    030903 240  0.1-  0.2+  

030407 673  0.5+  0.4+    030423 926  0.9-  0.7-    030903 240  0.0   0.2+  

030407 673  0.1-  0.9+    030423 926  1.6-  1.1+    030903 240  0.1-  0.1+  

030407 673  0.1+  1.1+    030423 413  0.3-  0.2+    030903 240  0.1-  0.1+  

030407 673  1.2+  0.9+    030423 413  0.5-  0.1+    030903 240  0.0   0.1+  

030407 673  0.7+  1.2+    030423 413  0.1-  0.1-    030903 198  0.3+  0.2+  

030407 926  0.2+  0.1-    030423 185  0.6-  0.2+    030903 240  0.0   0.1+  

030407 926  0.2-  0.2-    030423 185  0.0   0.7+    030903 198  0.2+  0.2+  

030407 926  0.0   0.5+    030423 185  0.5+  0.3-    030903 240  0.1-  0.3+  

030407 644  0.1+  0.0     030423 185  1.3+  0.2-    030903 198  0.3+  0.1+  

030407 644  0.2-  0.2+    030423 185  1.6+  0.5-    030903 240  0.1-  0.3+  

030407 644  0.3+  0.4+    030423 185  1.5+  0.6-    030903 198  0.0   0.0   

030407 474  0.8+  0.0     030429 333  0.4-  0.0     030903 240  0.2-  0.4+  

030407 474  0.2-  0.1-    030429 333  0.5-  0.6-    030906 379  0.0   0.3-  

030407 474  0.5-  0.1-    030429 333  0.5-  0.2-    030906 379  0.1-  0.4-  

030408 587  0.2-  1.3+    030502 176  0.5+  0.9+    030906 379  0.3+  0.3-  

030408 587  0.5-  0.1-    030502 176  0.3+  0.5+    030906 379  0.1-  0.4+  

030408 587  1.0-  0.6+    030502 176  0.1+  0.1+                            

 



 

NAKANO

         **** Don't distribute anyone except personal use only ****

                (C) Copyright 2003 OAA/ComputingSection

write mail from CFAD0::NAKANO on 2003-09-07 05:05:41(JST).

 





–ß‚è‚Ü‚·B